ARIANE 2 DEB, 27044

Orbit data source: Space-Track

ARIANE 2 DEB, 27044 is space debris in HEO originally from a launch on Fri, 27 Jan 1989 UTC launched from the French Guiana (FRGUI). Debris objects in space refer to the collection of defunct objects orbiting the Earth. Examples of debris include non-operational satellites, rocket bodies, and fragments generated from explosions, collisions, or faulty payload assembly.

Loading next visibility...
Identifier
27044, 1989-006Z
Orbit
HEO
Country
Flag of FRFR
Related business
Manufacturer
EADS/LV
Mission
Spacecraft
Bus & Motor
Unknown
Mass
Unknown
Launch date (UTC)
1989-01-27 (37 years ago)
Launch vehicle
Unknown
Launch site
French Guiana (FRGUI)
Object type
Payload
Rocket body
Debris
Shape & HBR
Unknown shape, 1.1 m
Radar Cross Section
Medium (>0.1 m² and <1 m²)

Expand to show TLE details & history
Last TLE update: 1 year ago

TLE from 1 year ago
0 ARIANE 2 DEB
1 27044U 89006Z   25151.13670889  .00005090  00000-0  21149-1 0  9998
2 27044   7.6140 160.7271 7137297 273.9800  14.4591  2.35550517199439
Epoch: 2025-05-31T03:16Z
TLE epoch observation values (Epoch: 2025-05-31T03:16:51.648Z)
Latitude
-0.00004°
Longitude
-137.30243°
Altitude
4,756.063 km
Speed
7.408 km/s
True Right ascension
10h 43m 10s
True Declination
0° 00' 00"
Sunlit
Object was in daylight at epoch
Visualization orbit readout
Latitude
Unknown
Longitude
Unknown
Altitude
Unknown
Speed
Unknown
Apparent Right ascension
Unknown
Apparent Declination
Unknown
Sunlit
N/A
Visualization observer readout
Local Sidereal Time
08:39:53
Azimuth
Unknown
Elevation
Unknown
Doppler factor
Unknown
Orbital elements
Apogee altitude
34,521.262 km
Perigee altitude
453.911 km
Semi-major axis
23,865.723 km
Eccentricity
0.71373
Inclination
7.614°
RAAN
160.7271°
Arg. of periapsis
273.98°
True anomaly
85.84053°
Mean anomaly
14.4591°
Eccentric anomaly
41.62037°
Mean motion
0.58868 °/min
Orbital period
611.53 mins
BSTAR
0.021149
Loading maneuver chart data...
Computing Atmospheric mass density...
Loading historical data...
Loading historical data...
Loading historical data...
Loading historical data...
Loading historical data...
Loading historical data...
Loading historical data...

Documentation

Showing up to 5 results
|